Wind_Speed
45 44 46 47 48 49 51 53 53 53 54 54 54 54 53 53 54 54 54 53 52 51 49 48 47 45 44 44 43 43 42 41 42 42 42 40 38 36 34 34 34 33 32 30 28 26 24 23 22 21 21 22 22 21 20 19 18 18 18 17 17 16 15
40 43 46 47 47 49 50 51 52 53 54 54 55 54 54 55 55 55 55 54 53 51 50 49 48 47 45 44 44 44 43 42 41 41 41 41 39 37 35 34 34 34 32 30 28 26 25 24 24 22 22 23 22 21 21 20 19 19 19 19 19 18 17
38 41 44 46 48 50 51 51 52 53 54 54 55 55 56 57 57 57 57 56 55 53 51 49 48 46 45 44 45 45 45 44 42 41 40 40 39 38 36 35 35 34 33 31 29 26 24 24 24 23 23 24 23 22 22 21 21 20 20 20 20 19 19
39 42 45 47 50 52 52 52 52 52 53 54 55 57 58 58 58 58 57 57 56 55 53 51 48 46 44 44 45 45 46 46 44 43 41 39 38 38 37 36 35 35 35 33 30 26 24 23 23 23 23 24 23 22 22 22 21 21 21 21 21 21 20
42 44 44 46 48 49 50 50 51 52 54 54 55 56 57 57 57 57 57 57 56 55 53 51 49 47 46 45 44 45 45 45 44 43 41 40 39 38 38 37 36 36 36 34 31 28 25 23 22 23 23 23 23 23 23 23 23 22 22 23 23 22 22
42 44 44 46 47 48 50 52 52 53 54 54 55 55 55 55 55 55 56 56 56 54 53 52 50 49 47 46 45 44 45 45 45 43 42 41 40 40 39 37 36 36 36 35 33 31 28 25 24 24 23 23 23 23 24 24 24 24 23 24 24 24 23
42 44 46 48 48 50 53 54 53 53 53 53 53 52 52 53 54 54 55 55 55 55 54 53 52 50 49 47 45 45 44 45 45 44 43 42 41 41 39 38 37 36 36 36 34 32 30 28 26 26 25 24 23 23 24 25 25 25 25 25 25 25 25
44 45 47 49 50 52 54 54 52 51 51 50 49 50 51 52 53 53 54 55 55 54 54 54 53 51 50 48 46 45 44 43 43 43 43 43 42 41 40 39 38 37 37 37 36 33 32 30 28 28 27 27 26 25 25 25 26 26 26 27 27 27 26
46 47 50 52 51 51 52 52 51 51 50 49 49 50 51 51 53 53 54 54 54 54 54 54 53 51 50 49 47 45 43 42 42 42 43 43 43 41 40 40 38 38 38 37 36 35 33 32 30 29 29 29 28 27 27 26 26 27 27 27 28 27 27
45 47 50 51 50 50 50 49 49 49 50 49 49 50 50 50 52 52 53 53 53 54 54 54 53 51 50 49 47 45 43 43 42 42 43 43 43 42 41 40 40 39 38 37 37 36 35 34 33 32 31 31 30 29 28 27 27 27 28 28 28 28 27
43 47 48 48 46 45 45 45 47 50 51 51 51 51 50 51 51 52 52 52 53 53 53 53 52 51 50 49 47 45 44 43 42 42 43 43 43 42 42 41 40 40 39 38 38 37 36 35 35 34 34 33 32 30 29 28 28 28 28 28 28 28 28
41 44 46 46 44 44 44 45 49 52 53 52 53 52 51 52 51 51 51 52 52 52 52 52 51 51 50 49 48 47 45 44 43 42 42 42 42 42 42 42 41 40 39 38 38 37 37 37 36 36 35 34 33 32 31 30 29 29 29 28 28 28 28
41 42 45 45 45 44 45 46 50 53 53 52 53 53 52 53 52 51 51 51 52 51 51 51 50 50 50 49 48 47 45 44 42 40 40 40 40 41 42 42 42 41 40 38 38 38 37 37 37 36 36 35 34 34 33 32 32 31 31 30 30 30 29
39 41 42 42 43 44 45 47 50 52 52 52 52 52 52 52 52 51 51 51 50 50 50 51 50 50 50 49 48 47 45 43 41 40 38 37 38 39 41 42 43 42 41 39 39 38 38 37 37 37 36 36 36 35 35 34 34 34 33 33 32 31 32
36 38 39 39 41 44 46 48 50 51 52 51 51 51 51 51 50 49 49 49 49 50 50 50 50 50 50 49 49 47 45 43 41 40 39 37 37 38 40 41 42 42 42 41 40 39 38 38 38 38 38 38 38 37 37 38 37 36 35 35 34 34 33
34 36 38 41 43 45 48 49 51 52 52 51 50 51 50 49 50 50 50 50 50 50 50 50 50 50 49 49 49 47 45 43 42 41 40 39 38 37 38 40 41 42 42 43 41 39 38 38 38 39 39 39 39 39 40 40 39 38 37 36 36 35 35
34 36 39 43 45 47 49 50 50 50 50 50 51 51 50 50 50 50 50 50 50 50 49 49 49 49 49 48 47 46 45 44 43 42 41 40 39 37 37 37 39 40 41 42 42 40 39 38 39 39 40 40 40 40 41 42 40 39 38 37 37 37 36
34 37 39 42 44 46 47 47 47 48 49 51 51 50 51 50 49 49 50 51 50 49 47 47 47 47 47 46 45 45 44 43 43 42 42 41 40 38 37 37 38 39 40 42 42 41 40 40 39 39 40 40 41 42 43 43 41 40 39 38 38 37 38
36 39 41 43 44 45 46 46 47 50 51 51 51 51 51 50 49 49 50 50 49 47 46 45 45 45 45 44 44 43 43 42 42 41 41 40 39 38 38 38 39 39 40 40 41 41 41 40 40 39 39 41 42 43 43 43 42 41 41 40 39 38 39
32 35 36 39 41 42 44 45 46 48 49 49 49 49 48 48 48 48 47 47 46 45 45 44 43 44 43 43 42 42 41 41 40 40 39 38 37 37 38 38 39 39 39 39 40 41 41 40 40 40 40 41 42 43 43 43 43 42 42 41 40 40 40
24 28 30 32 35 37 39 41 42 43 44 45 45 45 45 45 45 44 43 43 43 44 44 43 43 43 42 41 41 40 40 39 39 38 38 37 36 37 37 37 37 37 37 38 39 39 39 39 39 39 39 40 41 42 43 43 42 42 42 42 41 41 42
19 24 27 29 33 34 36 38 39 40 41 41 41 42 43 43 42 42 41 41 42 42 42 42 42 42 41 40 39 39 38 38 37 37 36 35 36 36 37 36 35 34 34 35 36 36 37 37 38 38 39 39 40 42 43 42 41 41 41 41 41 42 42
19 22 24 26 28 30 31 33 33 33 35 35 36 37 39 39 39 39 39 39 39 39 39 40 41 40 40 39 38 37 37 36 36 35 35 35 36 36 35 34 33 32 32 34 35 34 34 34 35 35 36 38 39 41 42 41 40 40 40 40 41 42 42
26 26 25 25 27 27 26 27 26 26 28 30 31 33 35 36 37 37 37 37 37 37 38 39 39 39 39 38 37 36 36 35 35 35 34 35 35 35 34 33 32 31 31 33 33 32 31 30 31 32 33 35 37 38 40 40 38 38 39 39 40 41 41
31 32 32 31 30 30 28 27 26 26 27 28 28 29 30 31 32 33 34 34 34 35 37 38 39 39 39 38 37 36 36 36 36 35 35 35 34 33 32 31 30 30 31 33 33 32 31 30 31 31 31 32 34 36 38 38 37 37 38 39 39 39 39
31 33 35 36 35 35 34 33 32 31 29 28 26 24 23 25 25 27 28 29 30 32 34 35 37 37 39 39 39 38 38 38 37 37 35 34 33 31 31 31 31 31 32 34 34 33 33 33 33 33 31 31 33 34 35 36 35 35 36 37 37 37 37
29 30 32 34 34 35 36 35 34 33 30 28 26 24 22 21 22 24 25 25 27 30 32 34 36 37 39 41 41 41 40 40 39 38 36 34 33 32 32 32 32 32 32 33 33 34 34 34 34 35 33 32 33 34 34 34 33 33 33 34 34 35 35
27 27 28 29 29 31 32 32 31 29 26 24 22 22 21 20 21 22 21 22 23 24 25 27 30 33 36 39 40 41 41 41 40 39 37 36 35 35 35 35 34 34 34 34 34 35 35 35 35 36 36 35 34 34 34 33 33 33 32 32 32 33 33
24 24 24 25 25 25 27 28 27 25 23 20 18 18 17 18 19 19 19 19 19 19 19 19 21 23 25 28 31 34 36 38 39 39 38 37 36 36 36 36 36 37 36 36 36 36 36 35 35 37 37 37 36 36 34 33 32 32 32 31 32 32 32
24 24 24 23 22 21 22 23 23 22 20 18 16 15 14 14 16 17 17 17 17 17 16 16 17 17 18 19 20 22 24 27 30 32 34 35 35 36 36 36 38 39 39 38 38 38 37 36 36 37 38 37 37 36 34 33 31 31 30 30 30 31 31
24 23 23 22 21 20 19 20 19 18 17 15 13 12 11 10 11 12 13 14 14 15 15 15 16 16 16 17 17 18 18 19 21 24 26 27 29 31 33 34 36 38 39 39 39 39 38 37 37 37 37 37 36 35 34 32 31 30 29 28 28 29 29
22 21 20 20 19 18 18 18 16 15 13 12 10 8 7 7 7 7 8 9 10 12 12 13 14 15 15 16 16 17 17 17 18 19 21 23 23 24 25 27 30 33 35 37 38 38 38 37 37 37 36 36 35 34 32 31 29 28 27 27 27 27 27
20 19 19 18 17 15 15 15 14 13 11 10 9 7 5 4 4 4 6 7 8 9 9 9 10 12 12 13 14 16 17 17 18 19 20 21 21 21 21 22 24 28 31 33 35 36 36 36 36 35 35 35 33 32 30 28 26 25 25 24 24 24 25
18 17 17 16 15 14 14 14 13 12 10 10 9 7 5 4 3 1 2 4 6 7 7 7 8 8 9 9 11 13 16 17 18 19 21 21 20 20 20 20 22 24 27 28 29 30 32 32 33 32 31 31 30 29 27 25 23 22 22 22 21 21 21
18 16 16 15 14 14 14 14 13 13 12 12 10 8 7 6 5 3 2 3 5 5 6 7 7 7 7 7 9 11 14 16 17 19 20 20 20 21 21 21 21 22 23 24 25 26 27 27 26 25 25 25 25 25 24 22 21 20 19 19 18 18 18
17 16 16 14 12 12 12 12 12 12 13 14 13 12 10 9 7 6 4 3 4 4 4 5 6 6 6 6 6 9 12 14 15 17 19 19 20 21 21 21 20 20 21 22 22 22 22 22 21 19 19 20 21 21 20 19 17 17 18 18 18 18 19
15 15 16 15 12 11 11 11 10 11 12 12 13 13 13 11 10 8 6 5 4 3 2 2 3 5 5 5 5 7 10 13 14 16 17 18 19 20 20 20 19 19 20 20 20 20 19 19 18 16 16 18 19 19 18 18 17 18 19 20 20 20 20
13 12 13 15 13 11 10 10 9 10 10 10 10 12 13 13 12 10 8 7 5 5 4 3 2 2 4 5 5 6 9 12 14 14 15 17 18 18 18 18 17 18 19 19 18 18 18 18 19 20 19 19 19 19 19 19 21 22 20 18 19 19 19
Wind_Direction
200 201 203 204 205 205 205 205 204 204 204 205 206 206 207 208 208 209 210 212 213 216 217 218 219 220 221 221 221 222 223 225 226 227 228 229 228 228 227 227 229 231 231 231 230 228 228 227 227 226 226 224 226 227 227 226 226 228 227 228 230 231 232
200 202 202 203 204 206 207 206 205 204 205 206 206 206 207 207 208 209 210 212 213 215 217 218 219 220 222 223 222 222 224 225 226 228 229 230 229 229 229 229 230 232 234 234 235 234 233 233 232 230 228 226 225 227 229 228 226 228 229 230 231 232 233
203 203 203 203 204 206 207 206 205 206 205 206 205 206 208 208 209 210 210 212 213 214 216 218 219 220 222 223 223 223 224 226 227 228 228 229 229 229 230 230 231 233 235 236 237 236 235 234 234 231 228 227 227 227 229 230 228 228 229 231 233 234 235
204 205 204 205 205 206 207 206 205 205 206 207 207 208 209 209 210 210 211 212 213 213 215 217 219 220 222 222 223 224 225 226 227 228 228 229 230 230 231 231 231 232 234 236 236 236 234 235 235 231 227 228 229 228 228 231 231 230 230 231 233 235 236
203 205 204 205 206 205 206 206 206 205 206 207 208 209 210 210 210 210 211 212 214 215 216 217 218 219 221 223 223 224 225 227 228 228 229 230 231 232 232 232 231 232 233 235 236 235 234 235 234 231 228 228 229 228 227 230 232 232 231 232 233 234 235
200 201 202 204 205 204 205 207 207 206 207 207 208 209 209 209 209 210 211 212 213 215 216 216 218 219 221 222 224 225 226 227 228 229 230 231 231 232 232 232 232 232 233 234 235 235 236 237 233 230 228 227 228 227 226 228 229 231 232 232 233 234 235
199 199 201 203 204 204 206 208 207 206 207 207 208 208 208 208 209 210 211 211 212 214 214 216 217 219 221 222 224 225 227 228 228 229 230 231 232 232 231 232 232 233 233 234 235 236 237 237 234 230 229 229 229 228 228 228 228 230 232 233 234 235 236
201 201 201 203 204 204 205 206 206 205 206 206 206 206 207 208 209 210 211 212 213 213 214 216 218 219 221 222 224 225 227 229 230 230 231 231 232 231 230 231 231 232 233 234 235 237 237 237 235 233 232 232 233 233 232 232 231 232 233 235 237 238 239
202 202 203 204 204 204 203 204 204 203 204 204 204 206 206 207 209 210 211 212 212 213 214 216 218 220 221 222 224 226 228 230 232 232 233 233 233 232 230 230 230 231 233 234 235 237 238 237 236 236 235 235 236 236 235 234 234 234 235 236 238 240 242
201 203 204 204 203 202 202 201 200 201 203 203 204 206 206 207 208 210 211 212 212 214 215 216 218 219 221 222 225 227 228 230 231 233 234 234 235 234 232 230 231 231 232 233 235 236 238 238 237 237 238 239 238 238 237 236 236 235 235 237 238 240 242
200 202 203 203 201 200 198 197 197 199 203 203 204 205 206 206 208 209 210 211 213 215 216 216 217 218 220 222 224 226 228 229 231 232 233 235 236 236 234 233 233 233 233 233 234 236 237 238 239 239 240 240 240 240 240 240 240 240 239 239 239 240 241
199 200 200 200 198 197 196 195 196 200 203 203 204 205 206 207 208 209 210 212 213 215 215 215 216 217 219 222 223 225 227 229 230 232 233 235 236 237 237 236 235 235 235 235 235 236 237 238 239 240 241 240 240 241 242 243 244 245 245 244 244 243 243
197 198 198 198 196 194 194 194 196 200 203 203 204 205 206 207 208 209 210 212 213 214 215 215 216 217 219 221 223 225 228 229 231 232 234 236 237 238 238 237 237 237 236 236 236 236 237 238 239 240 241 241 241 242 243 244 246 247 248 248 248 247 247
194 195 196 195 193 192 193 193 196 199 202 203 204 205 206 207 208 209 210 211 213 213 214 215 216 217 219 221 223 225 228 230 231 232 234 236 238 239 239 238 238 238 238 238 238 237 238 238 239 241 241 242 242 243 245 246 246 247 247 248 249 249 250
190 192 191 190 191 192 193 194 195 198 202 203 203 204 205 206 207 208 210 212 213 214 215 215 216 218 219 220 222 225 228 230 231 232 233 235 237 239 239 239 239 239 239 238 238 238 238 239 240 241 242 243 244 245 247 248 248 247 248 249 249 250 251
188 189 187 189 192 193 194 196 197 198 201 201 202 203 204 205 207 208 210 212 213 214 215 215 216 217 218 219 223 226 228 229 231 232 233 234 236 239 240 240 240 240 240 240 239 239 239 239 240 241 242 244 245 247 248 248 249 249 250 251 251 252 254
188 188 187 190 192 193 195 197 197 198 199 200 202 203 204 206 208 209 210 211 213 214 214 215 216 218 219 221 225 227 228 229 231 232 233 234 236 238 240 240 240 240 241 241 241 241 240 240 240 241 242 244 245 247 249 249 250 251 252 254 254 255 256
188 188 189 190 192 193 195 195 196 197 199 201 202 203 206 208 208 209 211 212 213 214 213 214 216 218 219 223 226 228 229 230 231 232 233 235 236 238 240 241 241 241 241 242 242 242 242 241 241 241 242 243 245 246 248 250 251 253 254 256 257 258 259
189 189 190 191 191 193 194 195 197 199 201 202 203 206 209 210 211 213 214 213 212 212 212 213 216 217 220 225 228 230 230 232 233 234 235 237 238 239 241 241 242 242 242 243 243 243 243 244 243 243 243 244 245 246 248 250 251 253 255 257 258 259 260
190 190 189 190 191 192 193 195 198 200 202 203 205 208 210 211 214 216 215 213 211 212 212 213 215 218 223 228 230 231 232 233 235 236 237 239 240 241 242 242 243 244 245 245 245 245 245 245 245 245 245 245 246 247 249 250 251 253 255 257 259 260 261
184 185 186 186 188 190 192 194 197 199 202 204 205 207 208 210 213 214 213 213 213 214 214 214 217 221 226 229 231 232 233 234 235 237 238 240 241 241 242 243 244 245 246 246 246 247 248 248 248 247 247 247 248 250 251 251 252 254 255 257 259 261 261
166 175 179 182 186 188 190 194 197 199 201 203 204 206 208 210 211 212 214 215 215 216 217 217 219 223 226 229 230 232 233 234 235 237 239 240 241 241 242 243 244 245 245 246 246 248 249 249 249 249 249 249 250 251 252 253 253 255 256 258 260 261 261
141 157 166 172 177 181 185 190 195 197 198 200 202 207 209 210 211 212 214 215 216 217 219 220 221 224 227 229 231 232 233 234 235 237 239 239 240 241 241 242 243 244 244 244 245 246 246 247 249 249 250 251 252 253 254 254 255 256 257 259 260 260 261
116 132 145 155 162 166 172 180 185 188 192 195 199 206 210 211 212 213 213 214 215 216 218 221 223 226 229 231 233 235 236 237 237 238 239 239 240 242 243 243 244 244 245 244 245 246 247 249 250 251 252 252 253 254 256 257 258 258 259 261 261 261 262
102 115 127 137 147 152 155 162 166 170 178 185 190 198 206 209 210 213 215 217 219 220 222 225 227 230 232 235 238 239 239 240 240 241 241 241 242 244 245 246 246 246 247 247 248 249 250 251 251 252 253 253 254 256 257 259 260 260 261 262 262 262 263
95 106 115 121 131 137 140 148 153 155 160 166 169 177 189 197 201 207 213 218 221 225 229 231 233 235 236 237 239 241 242 242 242 242 243 243 245 247 247 248 248 248 248 249 250 252 252 252 252 253 254 255 256 257 258 259 261 262 262 263 263 263 264
91 101 110 114 122 129 134 139 143 144 147 150 153 157 165 174 183 192 201 208 213 219 225 230 232 234 235 236 236 238 240 243 244 245 246 247 248 249 249 249 249 249 249 251 252 253 253 254 254 254 255 256 256 258 259 261 262 263 264 265 265 265 265
87 95 105 110 117 126 131 132 133 135 136 139 147 153 156 162 169 175 183 192 199 206 214 220 226 230 233 235 236 238 239 241 243 245 247 248 250 250 251 251 251 250 251 251 252 253 254 255 255 255 256 256 256 257 259 261 262 264 265 266 266 266 266
81 87 96 102 107 115 122 124 123 123 123 127 139 149 157 167 172 173 179 185 191 197 203 209 217 223 229 234 236 239 240 242 243 244 245 247 248 250 251 252 252 251 250 250 250 252 253 255 255 255 255 256 256 256 258 260 262 264 266 267 268 267 267
75 82 89 94 95 100 109 113 114 114 114 116 125 136 148 164 175 181 187 191 196 202 206 210 216 221 225 230 234 238 241 243 244 244 245 246 247 247 248 250 250 250 250 250 250 250 251 253 254 254 254 255 256 257 258 260 261 263 266 267 268 268 269
71 78 84 88 89 91 94 99 103 108 111 113 117 126 136 149 165 179 188 196 204 210 215 220 226 229 231 232 235 239 244 246 245 244 244 244 244 245 245 246 247 248 248 249 249 249 250 252 253 254 254 255 257 259 260 261 262 264 267 268 268 269 268
65 71 76 78 81 85 89 93 96 99 104 107 110 119 130 143 160 177 190 202 211 217 223 230 234 238 239 238 237 237 238 242 244 244 242 241 241 244 245 245 245 246 247 248 249 249 250 251 252 254 255 256 258 259 261 263 264 266 268 268 267 267 266
56 60 63 67 73 78 83 88 88 88 91 92 90 92 106 128 157 183 201 214 222 224 227 234 241 246 245 240 236 233 230 232 236 237 237 237 237 240 242 243 244 245 246 247 248 249 250 250 251 253 254 256 258 260 262 263 264 264 265 265 265 265 265
49 54 55 58 64 70 74 78 78 77 80 80 77 75 78 83 87 145 221 233 239 236 233 237 245 255 255 242 233 231 229 229 231 232 232 230 230 232 234 236 239 242 244 247 249 251 252 253 254 256 258 259 261 261 261 260 259 260 261 262 263 264 263
43 50 52 53 57 61 66 72 72 70 70 70 66 59 57 57 44 18 334 279 266 257 246 241 243 256 264 252 234 231 232 231 230 229 227 224 224 225 225 226 231 236 240 244 247 251 254 257 259 262 264 265 264 262 260 259 258 257 257 258 257 255 253
34 40 46 50 56 59 60 64 66 64 64 62 55 48 47 44 34 19 0 330 306 288 263 245 241 249 262 264 248 236 234 232 228 227 226 225 225 225 222 222 226 231 236 239 242 247 251 255 259 263 265 264 262 260 259 258 255 252 251 251 250 249 248
25 30 33 34 41 49 51 53 54 55 60 58 50 45 43 38 32 22 11 6 2 351 325 273 253 248 254 264 259 241 236 234 230 227 227 227 227 226 225 223 224 227 232 237 240 243 245 248 251 254 254 255 255 255 254 251 247 246 247 249 248 248 248
19 23 24 24 28 36 41 45 46 49 55 56 49 45 42 34 29 24 15 7 5 11 19 7 336 289 252 254 255 244 237 234 230 227 226 225 225 225 225 225 226 227 227 230 236 241 244 247 250 250 251 252 253 254 255 252 248 245 246 246 244 244 243
Height
1436 1440 1444 1448 1451 1454 1455 1458 1461 1465 1469 1472 1475 1480 1483 1487 1490 1493 1496 1498 1501 1505 1508 1512 1515 1518 1521 1524 1527 1530 1532 1535 1538 1540 1543 1545 1547 1550 1552 1554 1556 1558 1559 1561 1562 1564 1566 1568 1570 1571 1573 1574 1575 1577 1578 1579 1580 1581 1582 1582 1583 1584 1584
1435 1437 1440 1444 1447 1450 1452 1456 1459 1462 1465 1468 1472 1476 1479 1483 1486 1489 1492 1495 1498 1501 1505 1508 1511 1514 1518 1521 1524 1527 1530 1533 1535 1538 1540 1543 1545 1548 1550 1552 1554 1556 1558 1560 1562 1563 1565 1567 1568 1570 1571 1573 1574 1575 1577 1578 1579 1580 1580 1581 1582 1583 1583
1433 1435 1437 1440 1442 1445 1448 1452 1455 1458 1461 1464 1468 1471 1474 1477 1481 1484 1487 1491 1494 1498 1501 1505 1508 1511 1515 1518 1521 1524 1527 1530 1532 1535 1537 1540 1543 1545 1548 1550 1552 1554 1556 1558 1560 1562 1564 1565 1567 1568 1570 1571 1572 1574 1575 1576 1577 1578 1579 1580 1580 1581 1582
1428 1430 1433 1435 1436 1440 1444 1447 1451 1454 1458 1460 1463 1466 1469 1473 1477 1481 1485 1488 1491 1495 1497 1501 1505 1508 1512 1515 1518 1521 1524 1527 1529 1532 1535 1537 1540 1543 1545 1548 1550 1552 1554 1556 1559 1561 1562 1564 1565 1567 1568 1570 1571 1572 1573 1574 1575 1577 1577 1578 1579 1579 1580
1422 1425 1429 1432 1434 1438 1442 1445 1448 1450 1454 1457 1460 1464 1467 1471 1476 1480 1483 1486 1489 1492 1495 1499 1503 1506 1509 1512 1515 1518 1521 1524 1527 1530 1533 1535 1538 1540 1542 1545 1547 1550 1552 1554 1557 1558 1560 1562 1563 1565 1566 1568 1569 1570 1571 1572 1573 1574 1575 1576 1577 1578 1578
1416 1420 1424 1427 1431 1435 1437 1440 1443 1446 1450 1453 1457 1461 1464 1470 1474 1477 1481 1485 1488 1491 1494 1498 1501 1503 1507 1510 1513 1516 1519 1522 1524 1527 1530 1533 1535 1537 1539 1542 1544 1547 1549 1552 1554 1556 1558 1560 1562 1563 1564 1566 1567 1568 1569 1570 1571 1572 1573 1574 1575 1576 1577
1410 1414 1418 1421 1425 1429 1431 1435 1439 1443 1448 1451 1455 1460 1464 1468 1472 1475 1479 1482 1485 1489 1492 1495 1498 1501 1504 1507 1511 1514 1516 1519 1522 1525 1527 1530 1532 1534 1537 1539 1542 1544 1547 1549 1551 1553 1555 1557 1559 1561 1562 1564 1565 1566 1567 1568 1569 1570 1571 1572 1573 1574 1575
1405 1408 1412 1416 1419 1422 1426 1431 1436 1441 1446 1450 1455 1458 1461 1465 1468 1472 1475 1479 1483 1487 1490 1492 1495 1498 1502 1505 1508 1511 1513 1516 1519 1522 1525 1527 1529 1531 1534 1536 1539 1541 1544 1546 1548 1550 1553 1555 1557 1559 1560 1561 1563 1564 1565 1566 1567 1568 1569 1570 1571 1572 1573
1400 1403 1406 1410 1413 1418 1423 1427 1433 1438 1443 1447 1451 1454 1457 1461 1464 1468 1471 1475 1479 1483 1486 1489 1493 1496 1499 1502 1505 1508 1511 1514 1517 1519 1522 1524 1526 1528 1531 1533 1536 1538 1541 1543 1545 1547 1550 1552 1554 1556 1557 1559 1560 1561 1563 1564 1565 1566 1567 1567 1568 1569 1570
1396 1400 1402 1406 1410 1414 1420 1425 1430 1436 1440 1444 1447 1451 1454 1457 1461 1465 1468 1472 1476 1479 1482 1486 1490 1493 1497 1499 1502 1506 1509 1511 1514 1516 1519 1521 1523 1525 1528 1531 1533 1535 1538 1540 1543 1544 1546 1549 1551 1553 1554 1556 1557 1558 1560 1561 1562 1563 1564 1565 1566 1567 1568
1392 1395 1399 1403 1408 1413 1418 1423 1428 1432 1436 1439 1443 1447 1450 1454 1458 1461 1465 1468 1472 1475 1479 1483 1487 1491 1493 1496 1500 1503 1505 1508 1511 1513 1515 1518 1520 1523 1526 1528 1530 1533 1535 1537 1539 1541 1543 1545 1547 1549 1551 1552 1554 1555 1557 1558 1559 1561 1561 1563 1564 1565 1566
1388 1391 1395 1400 1405 1410 1415 1418 1423 1427 1430 1434 1439 1443 1447 1451 1455 1458 1462 1465 1469 1472 1476 1480 1484 1487 1490 1493 1496 1499 1502 1505 1507 1510 1512 1515 1517 1520 1523 1525 1527 1530 1532 1534 1536 1538 1540 1542 1544 1546 1547 1549 1551 1552 1554 1555 1556 1557 1558 1560 1561 1562 1563
1383 1387 1392 1396 1401 1406 1410 1414 1418 1422 1426 1430 1435 1439 1443 1447 1451 1455 1459 1462 1466 1470 1473 1477 1481 1484 1487 1490 1492 1495 1498 1501 1503 1506 1509 1511 1514 1517 1520 1522 1524 1526 1529 1531 1533 1535 1537 1538 1540 1542 1544 1546 1548 1549 1551 1552 1553 1554 1555 1557 1558 1560 1560
1380 1384 1389 1394 1399 1403 1406 1410 1415 1419 1423 1427 1431 1436 1441 1445 1449 1452 1456 1460 1463 1467 1470 1473 1477 1480 1483 1486 1489 1491 1494 1497 1500 1503 1506 1508 1511 1514 1516 1518 1521 1523 1525 1528 1530 1531 1533 1535 1537 1539 1541 1543 1544 1546 1547 1549 1550 1551 1552 1554 1555 1556 1557
1377 1382 1387 1391 1396 1399 1403 1407 1411 1415 1420 1424 1429 1434 1438 1443 1447 1450 1454 1458 1461 1464 1467 1470 1473 1476 1479 1482 1484 1487 1490 1494 1497 1499 1503 1505 1508 1510 1512 1515 1517 1520 1522 1524 1526 1528 1530 1532 1534 1536 1537 1539 1540 1542 1544 1545 1545 1547 1549 1550 1552 1553 1554
1375 1379 1384 1388 1392 1396 1399 1403 1407 1411 1416 1421 1426 1431 1435 1440 1443 1447 1451 1454 1457 1461 1464 1467 1470 1472 1476 1478 1481 1484 1488 1491 1494 1496 1499 1502 1504 1507 1509 1512 1514 1516 1518 1520 1522 1524 1527 1529 1531 1532 1533 1535 1536 1538 1539 1540 1541 1543 1545 1547 1548 1550 1551
1373 1377 1381 1384 1388 1392 1396 1401 1405 1410 1415 1419 1423 1428 1432 1435 1439 1443 1447 1451 1454 1457 1461 1464 1467 1470 1473 1475 1478 1482 1485 1488 1491 1493 1496 1498 1501 1504 1506 1508 1511 1513 1515 1517 1518 1521 1523 1525 1526 1528 1529 1531 1532 1534 1534 1535 1537 1539 1541 1543 1545 1546 1547
1371 1374 1378 1382 1386 1390 1395 1400 1404 1408 1412 1416 1421 1425 1428 1432 1436 1441 1444 1447 1451 1455 1459 1462 1465 1467 1470 1473 1477 1480 1482 1485 1488 1490 1493 1495 1498 1500 1503 1505 1507 1509 1511 1513 1514 1517 1519 1520 1522 1523 1525 1527 1528 1529 1530 1531 1533 1536 1538 1539 1541 1543 1544
1368 1372 1375 1379 1384 1389 1393 1397 1401 1405 1409 1413 1418 1422 1425 1430 1434 1437 1440 1444 1449 1453 1457 1460 1462 1466 1468 1471 1474 1476 1479 1482 1485 1487 1490 1492 1495 1497 1499 1501 1503 1505 1507 1509 1511 1513 1515 1516 1518 1519 1521 1522 1523 1525 1526 1528 1530 1532 1534 1536 1537 1539 1540
1369 1372 1376 1380 1383 1387 1391 1395 1399 1403 1408 1412 1416 1420 1425 1429 1432 1435 1439 1444 1449 1452 1455 1458 1461 1463 1466 1468 1471 1473 1476 1479 1481 1484 1486 1489 1492 1494 1495 1497 1499 1501 1503 1505 1508 1509 1510 1511 1513 1515 1517 1518 1519 1520 1522 1523 1526 1528 1530 1532 1533 1535 1537
1371 1373 1377 1380 1384 1388 1392 1396 1400 1404 1408 1413 1417 1421 1425 1429 1432 1436 1441 1445 1447 1450 1453 1455 1458 1461 1463 1465 1468 1471 1473 1476 1478 1481 1483 1485 1488 1490 1491 1493 1495 1497 1499 1501 1503 1504 1505 1507 1509 1510 1512 1513 1515 1516 1517 1519 1522 1524 1526 1528 1530 1532 1533
1373 1375 1377 1380 1384 1388 1392 1396 1400 1404 1408 1412 1417 1421 1424 1428 1432 1436 1440 1443 1446 1448 1451 1453 1456 1458 1460 1462 1465 1468 1470 1473 1475 1477 1479 1482 1484 1485 1487 1489 1491 1493 1495 1497 1498 1500 1501 1503 1504 1506 1507 1509 1511 1512 1512 1514 1517 1520 1521 1524 1526 1528 1529
1376 1377 1379 1382 1386 1389 1393 1397 1401 1405 1409 1413 1417 1421 1424 1428 1432 1435 1438 1442 1444 1447 1449 1451 1453 1455 1457 1460 1462 1465 1467 1469 1472 1474 1476 1478 1480 1481 1484 1486 1488 1490 1491 1493 1494 1495 1496 1498 1499 1501 1503 1505 1506 1507 1507 1510 1513 1515 1517 1520 1522 1523 1525
1379 1380 1382 1384 1387 1391 1395 1399 1402 1406 1410 1414 1417 1421 1424 1427 1431 1434 1437 1440 1442 1445 1447 1448 1450 1452 1454 1457 1459 1462 1464 1466 1468 1470 1472 1474 1476 1478 1480 1482 1484 1486 1487 1488 1489 1491 1492 1494 1496 1497 1499 1500 1501 1502 1504 1506 1509 1512 1513 1516 1518 1519 1520
1382 1383 1385 1387 1389 1392 1395 1399 1403 1406 1410 1414 1417 1420 1423 1426 1430 1433 1436 1439 1441 1443 1445 1446 1448 1450 1452 1454 1457 1459 1461 1463 1464 1467 1469 1470 1472 1475 1476 1478 1480 1482 1484 1485 1486 1487 1489 1491 1492 1493 1495 1496 1497 1499 1501 1502 1505 1508 1509 1511 1514 1515 1516
1387 1388 1388 1390 1392 1393 1396 1399 1402 1406 1410 1414 1417 1420 1422 1425 1428 1432 1435 1437 1440 1441 1442 1444 1446 1448 1450 1452 1454 1456 1458 1459 1461 1463 1465 1468 1470 1472 1473 1475 1477 1479 1480 1481 1482 1484 1486 1487 1488 1489 1491 1493 1494 1496 1497 1499 1501 1504 1505 1507 1510 1511 1513
1391 1392 1392 1394 1395 1396 1398 1401 1403 1407 1410 1413 1416 1419 1421 1423 1427 1430 1433 1435 1437 1439 1440 1442 1444 1446 1448 1450 1451 1453 1455 1457 1458 1460 1463 1465 1467 1469 1470 1472 1474 1475 1477 1478 1479 1480 1482 1483 1484 1486 1487 1490 1491 1493 1494 1496 1498 1500 1502 1504 1505 1507 1509
1395 1395 1396 1397 1398 1399 1400 1401 1404 1406 1409 1412 1415 1418 1420 1423 1426 1428 1431 1433 1435 1436 1438 1439 1441 1443 1445 1446 1448 1450 1452 1454 1456 1458 1460 1462 1464 1465 1467 1468 1470 1472 1473 1475 1476 1477 1478 1480 1481 1482 1484 1486 1488 1489 1491 1493 1495 1496 1498 1500 1502 1503 1505
1399 1399 1399 1400 1401 1401 1401 1401 1403 1405 1408 1411 1415 1417 1420 1423 1425 1427 1429 1431 1433 1434 1436 1437 1439 1440 1442 1444 1445 1447 1448 1450 1453 1455 1457 1459 1461 1462 1463 1465 1466 1468 1470 1471 1472 1474 1475 1476 1478 1479 1481 1482 1484 1486 1488 1490 1492 1493 1495 1496 1498 1500 1501
1401 1402 1402 1402 1401 1401 1401 1401 1402 1405 1408 1411 1414 1417 1419 1422 1423 1426 1428 1430 1431 1433 1435 1436 1438 1439 1440 1442 1443 1444 1446 1447 1449 1451 1453 1455 1458 1459 1460 1462 1463 1464 1466 1468 1469 1470 1471 1473 1475 1476 1477 1479 1481 1483 1485 1487 1489 1491 1492 1493 1495 1496 1497
1403 1404 1404 1403 1403 1403 1402 1402 1404 1406 1409 1412 1414 1416 1418 1420 1421 1423 1425 1427 1429 1431 1433 1434 1435 1437 1438 1439 1440 1441 1443 1444 1446 1447 1449 1451 1453 1455 1457 1459 1460 1461 1462 1464 1465 1467 1468 1470 1472 1473 1475 1476 1478 1480 1482 1484 1486 1488 1489 1490 1492 1493 1494
1406 1406 1406 1405 1405 1405 1405 1405 1407 1408 1410 1412 1414 1415 1417 1418 1420 1421 1423 1425 1426 1428 1429 1431 1432 1433 1434 1436 1437 1438 1440 1441 1443 1444 1446 1448 1450 1452 1454 1456 1458 1459 1460 1461 1462 1463 1465 1467 1469 1470 1472 1474 1476 1478 1480 1482 1483 1485 1486 1487 1489 1490 1491
1409 1409 1409 1408 1408 1408 1408 1409 1410 1411 1412 1413 1414 1415 1417 1418 1419 1420 1421 1422 1424 1425 1426 1427 1428 1430 1431 1432 1434 1435 1437 1438 1440 1441 1443 1445 1447 1449 1451 1453 1455 1456 1457 1458 1460 1461 1463 1464 1466 1468 1470 1472 1473 1476 1478 1479 1481 1482 1483 1484 1485 1487 1488
1411 1411 1411 1411 1411 1411 1411 1411 1411 1412 1413 1413 1415 1416 1416 1417 1418 1419 1420 1421 1422 1423 1424 1425 1426 1428 1429 1430 1432 1433 1434 1436 1437 1439 1441 1442 1445 1447 1449 1450 1452 1453 1455 1456 1458 1459 1461 1462 1464 1466 1468 1470 1472 1473 1475 1476 1477 1478 1479 1481 1482 1483 1484
1414 1414 1413 1413 1413 1413 1412 1412 1412 1413 1413 1413 1414 1415 1415 1415 1416 1417 1417 1418 1419 1421 1422 1423 1425 1426 1428 1429 1430 1432 1433 1434 1435 1437 1438 1440 1442 1444 1446 1447 1449 1451 1453 1455 1456 1458 1460 1461 1463 1465 1467 1468 1470 1471 1472 1473 1475 1476 1477 1478 1479 1480 1481
1416 1415 1415 1415 1415 1414 1414 1413 1413 1413 1413 1413 1413 1413 1414 1414 1415 1416 1416 1417 1418 1419 1420 1421 1423 1425 1426 1428 1429 1431 1432 1432 1433 1435 1436 1438 1440 1442 1443 1445 1447 1449 1451 1453 1455 1457 1459 1460 1462 1464 1466 1467 1468 1469 1470 1471 1472 1473 1474 1475 1476 1477 1478
1416 1415 1415 1415 1415 1415 1414 1414 1414 1413 1413 1414 1414 1414 1414 1415 1416 1416 1417 1417 1418 1418 1419 1420 1422 1423 1425 1426 1428 1429 1431 1431 1432 1433 1435 1437 1439 1440 1442 1444 1446 1448 1450 1452 1454 1456 1458 1460 1461 1463 1464 1465 1466 1467 1468 1469 1470 1471 1471 1472 1473 1474 1475
1418 1416 1416 1416 1416 1416 1416 1415 1416 1416 1416 1416 1416 1416 1415 1416 1417 1418 1418 1418 1418 1419 1419 1420 1421 1422 1424 1426 1427 1429 1430 1430 1431 1433 1435 1436 1438 1440 1442 1443 1445 1447 1449 1451 1454 1456 1457 1459 1460 1461 1462 1463 1464 1465 1466 1467 1467 1468 1469 1470 1471 1472 1473